Showing default

COSMOS 2433 (GLONASS), 32275

Orbit data source: Space-Track

COSMOS 2433 (GLONASS), 32275 is a Commonwealth of Independent States-origin payload satellite in MEO that was launched on Fri, 26 Oct 2007 UTC via a PROTON-K/DM-2 launch vehicle from the Tyuratam Missile And Space Complex (TTMTR). Payload-class satellites include a variety of spacecraft equipped with specific instruments for various scientific and technological missions. These include communications satellites like Starlink; space stations such as the ISS; scientific satellites like the Hubble; Earth observation satellites from companies like Planet Labs, Umbra, and HawkEye 360; GPS; miniature CubeSats for education and research; and military/defense satellites.

Loading next visibility...
Identifier
32275, 2007-052A
Orbit
MEO
Country
Flag of CISCIS
Related business
Manufacturer
Resehetnev ISS
Mission
On reserve Defense Navigation
Bus & Motor
URAGAN, Unknown motor
Mass
1,450 kg wet, ~1,200 kg dry
Launch date (UTC)
2007-10-26 (18 years ago)
Launch vehicle
PROTON-K/DM-2
Launch site
Tyuratam Missile And Space Complex (TTMTR)
Object type
Payload
Rocket body
Debris
Shape & HBR
Cyl + 1 Ant + 2 Pan, 3.9 m
Radar Cross Section
8.467 m², Large (>1 m²)

Expand to show TLE details & history
Last TLE update: 1 day ago

TLE from 1 day ago
0 COSMOS 2433 (GLONASS)
1 32275U 07052A   25310.48729047 -.00000030  00000-0  00000-0 0  9999
2 32275  65.7019 323.4240 0005940 244.7496 115.2273  2.13103975140312
Epoch: 2025-11-06T11:41Z
TLE epoch observation values (Epoch: 2025-11-06T11:41:41.896Z)
Latitude
-0.00002°
Longitude
102.06202°
Altitude
19,136.773 km
Speed
3.952 km/s
True Right ascension
21h 33m 43s
True Declination
0° 00' 00"
Sunlit
Object was in daylight at epoch
Visualization orbit readout
Latitude
Unknown
Longitude
Unknown
Altitude
Unknown
Speed
Unknown
Apparent Right ascension
Unknown
Apparent Declination
Unknown
Sunlit
N/A
Visualization observer readout
Local Sidereal Time
13:18:19
Azimuth
Unknown
Elevation
Unknown
Doppler factor
Unknown
Orbital elements
Apogee altitude
19,144.472 km
Perigee altitude
19,114.169 km
Semi-major axis
25,507.458 km
Eccentricity
0.00059
Inclination
65.7019°
RAAN
323.424°
Arg. of periapsis
244.7496°
True anomaly
115.28886°
Mean anomaly
115.2273°
Eccentric anomaly
115.25808°
Mean motion
0.53277 °/min
Orbital period
675.71 mins
BSTAR
0
Loading maneuver chart data...
Computing Atmospheric mass density...
Loading historical data...
Loading historical data...
Loading historical data...
Loading historical data...
Loading historical data...
Loading historical data...
Loading historical data...

Documentation

Showing up to 5 results
|